period_start,C,m1,H,J0,J1,J2,J3,J4,J5,JA,JB,JC,JD,JJ,JK,JN,#
2018-06-28 00:03:18,0.00,0.65,0.00,24.67,28.22,31.07,13.75,47.37,1012.41,2024.01,3062.00,2916.99,3325.98,600.01,590.15,51.48,0000 0000 0000 0000 000000
2018-06-28 00:08:19,0.00,0.65,0.00,24.69,28.22,31.04,13.74,47.23,1012.49,2024.00,3062.00,2916.99,3325.93,599.72,590.05,51.53,0000 0000 0000 0000 000000
2018-06-28 00:13:21,0.00,0.65,0.00,24.70,28.24,31.00,13.78,47.29,1012.63,2024.00,3062.00,2916.98,3325.82,599.88,590.26,51.58,0000 0000 0000 0000 000000
2018-06-28 00:18:22,0.01,0.65,0.00,24.71,28.25,31.05,13.80,47.19,1012.70,2024.00,3061.98,2916.93,3325.23,599.86,590.16,51.63,0000 0000 0000 0000 000000
2018-06-28 00:23:24,0.01,0.65,0.00,24.74,28.25,31.01,13.83,47.21,1012.71,2024.00,3061.97,2916.62,3325.03,599.84,590.11,51.68,0000 0000 0000 0000 000000
2018-06-28 00:28:25,0.01,0.65,0.00,24.76,28.27,31.02,13.78,47.18,1012.71,2024.00,3061.79,2916.37,3325.00,600.21,590.45,51.73,0000 0000 0000 0000 000000
2018-06-28 00:33:26,0.01,0.65,0.00,24.78,28.27,31.03,13.85,47.18,1012.71,2023.99,3061.40,2916.10,3325.00,600.15,590.34,51.78,0000 0000 0000 0000 000000
2018-06-28 00:38:28,0.00,0.65,0.00,24.80,28.30,30.99,13.80,47.13,1012.71,2023.99,3061.17,2916.04,3325.00,600.08,590.24,51.83,0000 0000 0000 0000 000000
2018-06-28 00:43:29,0.00,0.65,0.00,24.82,28.30,31.03,13.76,47.18,1012.71,2023.99,3061.09,2916.02,3324.99,600.08,590.13,51.88,0000 0000 0000 0000 000000
2018-06-28 00:48:30,0.00,0.65,0.00,24.84,28.31,31.03,13.84,47.23,1012.71,2023.99,3061.01,2916.00,3324.90,600.01,590.17,51.94,0000 0000 0000 0000 000000
2018-06-28 00:53:31,0.01,0.65,0.00,24.85,28.32,31.02,13.81,47.18,1012.70,2023.98,3061.00,2916.00,3324.44,600.02,590.08,51.99,0000 0000 0000 0000 000000
2018-06-28 00:58:32,0.00,0.65,0.00,24.87,28.34,31.04,13.85,47.29,1012.71,2023.97,3061.00,2916.00,3324.06,600.13,590.16,52.04,0000 0000 0000 0000 000000
2018-06-28 01:03:33,-0.00,0.65,0.00,24.87,28.35,31.07,13.76,47.29,1012.71,2023.93,3060.94,2915.96,3324.00,599.91,589.96,52.09,0000 0000 0000 0000 000000
2018-06-28 01:08:35,0.01,0.65,0.00,24.90,28.36,31.06,13.76,47.24,1012.71,2023.91,3060.83,2915.90,3324.00,599.99,589.92,52.14,0000 0000 0000 0000 000000
2018-06-28 01:13:36,0.00,0.65,0.00,24.91,28.37,31.06,13.85,47.32,1012.71,2023.85,3060.38,2915.66,3323.99,600.06,590.01,52.19,0000 0000 0000 0000 000000
2018-06-28 01:18:38,-0.01,0.65,0.00,24.92,28.39,31.05,13.77,47.17,1012.71,2023.71,3060.06,2915.21,3323.97,599.98,589.85,52.24,0000 0000 0000 0000 000000
2018-06-28 01:23:39,-0.01,0.65,0.00,24.94,28.40,31.05,13.80,47.42,1012.71,2023.46,3060.00,2915.02,3323.83,600.11,589.98,52.29,0000 0000 0000 0000 000000
2018-06-28 01:28:40,-0.00,0.65,0.00,24.97,28.42,31.09,13.86,47.36,1012.71,2023.25,3060.00,2915.00,3323.30,600.09,589.91,52.34,0000 0000 0000 0000 000000
2018-06-28 01:33:41,-0.01,0.65,0.00,24.99,28.43,31.09,13.70,47.19,1012.71,2023.13,3059.98,2915.00,3323.05,599.81,589.59,52.39,0000 0000 0000 0000 000000
2018-06-28 01:38:42,-0.00,0.65,0.00,25.02,28.45,31.10,13.82,47.27,1012.71,2023.05,3059.93,2914.99,3323.00,599.89,589.52,52.44,0000 0000 0000 0000 000000
2018-06-28 01:43:43,0.01,0.65,0.00,25.04,28.46,31.12,13.84,47.27,1012.71,2023.04,3059.51,2914.96,3322.99,600.09,589.70,52.49,0000 0000 0000 0000 000000
2018-06-28 01:48:45,0.01,0.65,0.00,25.05,28.48,31.11,13.72,47.28,1012.71,2023.03,3059.08,2914.76,3322.95,600.11,589.70,52.54,0000 0000 0000 0000 000000
2018-06-28 01:53:46,0.02,0.65,0.00,25.06,28.50,31.13,13.74,47.23,1012.71,2023.01,3059.02,2914.29,3322.61,599.91,589.55,52.59,0000 0000 0000 0000 000000
2018-06-28 01:58:47,0.00,0.65,0.00,25.10,28.51,31.13,13.74,47.17,1012.71,2023.00,3059.00,2914.03,3322.12,600.18,589.56,52.64,0000 0000 0000 0000 000000
2018-06-28 02:03:48,0.00,0.65,0.00,25.13,28.53,31.15,13.75,47.13,1012.71,2023.00,3059.00,2914.00,3322.01,600.10,589.61,52.69,0000 0000 0000 0000 000000
2018-06-28 02:08:50,0.00,0.65,0.00,25.15,28.55,31.18,13.78,47.23,1012.71,2022.99,3058.75,2913.99,3322.00,599.92,589.54,52.74,0000 0000 0000 0000 000000
2018-06-28 02:13:51,0.01,0.65,0.00,25.17,28.57,31.18,13.73,47.15,1012.71,2022.98,3058.15,2913.97,3321.94,599.71,589.15,52.79,0000 0000 0000 0000 000000
2018-06-28 02:18:53,0.01,0.65,0.00,25.20,28.59,31.19,13.82,47.23,1012.71,2022.97,3058.02,2913.84,3321.60,600.20,589.52,52.85,0000 0000 0000 0000 000000
2018-06-28 02:23:54,0.01,0.66,0.00,25.21,28.60,31.22,13.69,47.23,1012.71,2022.93,3058.00,2913.46,3321.16,599.77,589.12,52.90,0000 0000 0000 0000 000000
2018-06-28 02:28:55,-0.00,0.66,0.00,25.23,28.62,31.24,13.76,47.15,1012.71,2022.85,3058.00,2913.12,3321.02,600.08,589.26,52.95,0000 0000 0000 0000 000000
2018-06-28 02:33:57,-0.05,0.65,0.00,25.27,28.65,31.24,13.77,47.23,1012.71,2022.37,3057.94,2913.02,3321.00,600.27,589.41,53.00,0000 0000 0000 0000 000000
2018-06-28 02:38:58,-0.00,0.65,0.00,25.30,28.66,31.27,13.70,47.21,1012.71,2022.15,3057.58,2913.00,3320.97,600.06,589.26,53.05,0000 0000 0000 0000 000000
2018-06-28 02:43:59,0.00,0.65,0.00,25.30,28.68,31.29,13.73,47.17,1012.71,2022.05,3057.14,2912.98,3320.61,600.08,589.21,53.10,0000 0000 0000 0000 000000
2018-06-28 02:49:00,0.02,0.65,0.00,25.33,28.70,31.31,13.77,47.15,1012.71,2022.00,3057.00,2912.67,3320.05,600.30,589.50,53.15,0000 0000 0000 0000 000000
2018-06-28 02:54:01,0.01,0.65,0.00,25.36,28.72,31.33,13.73,47.12,1012.71,2022.00,3056.99,2912.19,3320.00,599.85,588.91,53.20,0000 0000 0000 0000 000000
2018-06-28 02:59:02,0.00,0.65,0.00,25.37,28.74,31.36,13.72,47.08,1012.71,2022.00,3056.94,2912.03,3320.00,600.02,589.03,53.25,0000 0000 0000 0000 000000
2018-06-28 03:04:04,0.00,0.65,0.00,25.39,28.76,31.37,13.72,47.05,1012.71,2021.99,3056.79,2912.01,3319.97,599.84,588.88,53.30,0000 0000 0000 0000 000000
2018-06-28 03:09:05,0.01,0.66,0.00,25.42,28.78,31.38,13.72,47.07,1012.71,2021.98,3056.18,2912.00,3319.65,600.08,588.91,53.35,0000 0000 0000 0000 000000
2018-06-28 03:14:06,0.01,0.66,0.00,25.45,28.80,31.39,13.80,47.12,1012.71,2021.97,3056.02,2912.00,3319.13,599.92,588.84,53.40,0000 0000 0000 0000 000000
2018-06-28 03:19:07,-0.00,0.66,0.00,25.46,28.82,31.42,13.77,47.16,1012.71,2021.97,3056.00,2911.95,3319.01,600.19,588.93,53.45,0000 0000 0000 0000 000000
2018-06-28 03:24:08,-0.00,0.66,0.00,25.49,28.84,31.43,13.81,47.08,1012.71,2021.84,3056.00,2911.60,3318.99,600.26,589.12,53.50,0000 0000 0000 0000 000000
2018-06-28 03:29:10,-0.02,0.66,0.00,25.50,28.86,31.46,13.78,47.05,1012.72,2021.47,3055.87,2911.12,3318.88,600.10,588.99,53.55,0000 0000 0000 0000 000000
2018-06-28 03:34:11,0.00,0.66,0.00,25.53,28.88,31.49,13.70,47.03,1012.72,2021.27,3055.45,2911.00,3318.37,600.05,588.77,53.60,0000 0000 0000 0000 000000
2018-06-28 03:39:12,-0.00,0.66,0.00,25.55,28.90,31.52,13.71,47.02,1012.72,2021.10,3055.15,2911.00,3318.05,599.93,588.59,53.65,0000 0000 0000 0000 000000
2018-06-28 03:44:14,-0.00,0.66,0.00,25.57,28.92,31.53,13.82,47.11,1012.73,2021.03,3055.00,2910.97,3318.00,599.89,588.63,53.70,0000 0000 0000 0000 000000
2018-06-28 03:49:15,0.00,0.66,0.00,25.59,28.95,31.54,13.73,46.96,1012.72,2021.02,3054.98,2910.86,3317.99,600.19,588.63,53.76,0000 0000 0000 0000 000000
2018-06-28 03:54:16,0.02,0.66,0.00,25.61,28.97,31.57,13.72,47.00,1012.72,2021.00,3054.90,2910.22,3317.82,599.67,588.29,53.81,0000 0000 0000 0000 000000
2018-06-28 03:59:17,0.02,0.66,0.00,25.64,28.99,31.59,13.68,47.06,1012.73,2021.00,3054.31,2910.02,3317.14,599.65,588.21,53.86,0000 0000 0000 0000 000000
2018-06-28 04:04:18,0.00,0.66,0.00,25.67,29.01,31.61,13.76,46.92,1012.73,2021.00,3054.02,2910.00,3317.00,599.67,588.07,53.91,0000 0000 0000 0000 000000
2018-06-28 04:09:19,0.00,0.66,0.00,25.67,29.03,31.63,13.74,47.13,1012.79,2020.98,3053.99,2909.99,3316.98,599.93,588.36,53.96,0000 0000 0000 0000 000000
2018-06-28 04:14:20,0.00,0.66,0.00,25.70,29.05,31.64,13.72,47.00,1012.83,2020.95,3053.95,2909.93,3316.81,599.78,588.30,54.01,0000 0000 0000 0000 000000
2018-06-28 04:19:21,0.02,0.66,0.00,25.72,29.07,31.67,13.74,47.03,1013.00,2020.88,3053.65,2909.48,3316.27,600.17,588.68,54.06,0000 0000 0000 0000 000000
2018-06-28 04:24:23,0.01,0.66,0.00,25.74,29.10,31.69,13.76,47.05,1013.16,2020.71,3053.16,2909.11,3316.02,599.90,588.51,54.11,0000 0000 0000 0000 000000
2018-06-28 04:29:24,-0.04,0.66,0.00,25.75,29.11,31.72,13.77,47.08,1013.17,2020.37,3053.02,2909.01,3316.00,599.89,588.61,54.16,0000 0000 0000 0000 000000
2018-06-28 04:34:25,-0.00,0.66,0.00,25.78,29.13,31.75,13.77,47.08,1013.18,2020.12,3052.98,2909.00,3315.95,600.11,588.64,54.21,0000 0000 0000 0000 000000
2018-06-28 04:39:26,0.01,0.66,0.00,25.81,29.15,31.76,13.71,47.14,1013.19,2020.04,3052.76,2908.96,3315.48,599.73,588.18,54.26,0000 0000 0000 0000 000000
2018-06-28 04:44:27,0.02,0.66,0.00,25.82,29.17,31.78,13.68,47.09,1013.20,2020.02,3052.13,2908.57,3315.03,600.01,588.43,54.31,0000 0000 0000 0000 000000
2018-06-28 04:49:29,0.01,0.66,0.00,25.85,29.20,31.80,13.76,47.00,1013.20,2020.00,3052.00,2908.04,3315.00,600.16,588.71,54.36,0000 0000 0000 0000 000000
2018-06-28 04:54:30,0.00,0.66,0.00,25.87,29.21,31.81,13.70,46.99,1013.21,2020.00,3051.99,2908.00,3314.93,600.17,588.50,54.41,0000 0000 0000 0000 000000
2018-06-28 04:59:31,0.01,0.66,0.00,25.88,29.23,31.84,13.75,47.07,1013.21,2020.00,3051.90,2908.00,3314.37,600.13,588.44,54.46,0000 0000 0000 0000 000000
2018-06-28 05:04:33,0.01,0.66,0.00,25.91,29.25,31.86,13.72,46.93,1013.24,2020.00,3051.41,2907.99,3314.05,600.19,588.49,54.51,0000 0000 0000 0000 000000
2018-06-28 05:09:34,0.01,0.66,0.00,25.92,29.27,31.87,13.72,47.04,1013.41,2020.00,3051.03,2907.86,3314.00,599.87,588.29,54.56,0000 0000 0000 0000 000000
2018-06-28 05:14:35,0.01,0.66,0.00,25.94,29.30,31.89,13.70,46.83,1013.38,2019.96,3051.00,2907.37,3313.99,599.81,588.24,54.62,0000 0000 0000 0000 000000
2018-06-28 05:19:37,0.00,0.66,0.00,25.96,29.31,31.92,13.69,46.88,1013.38,2019.94,3050.99,2907.08,3313.93,600.02,588.32,54.67,0000 0000 0000 0000 000000
2018-06-28 05:24:38,0.01,0.66,0.00,25.97,29.33,31.93,13.76,46.90,1013.43,2019.93,3050.94,2907.01,3313.35,600.29,588.35,54.72,0000 0000 0000 0000 000000
2018-06-28 05:29:39,-0.01,0.66,0.00,26.00,29.35,31.95,13.68,46.77,1013.42,2019.63,3050.42,2907.00,3313.03,600.24,588.27,54.77,0000 0000 0000 0000 000000
2018-06-28 05:34:41,-0.04,0.66,0.00,26.02,29.37,31.97,13.71,46.98,1013.43,2019.24,3050.06,2906.99,3313.00,600.30,588.42,54.82,0000 0000 0000 0000 000000
2018-06-28 05:39:42,0.01,0.66,0.00,26.02,29.39,31.97,13.65,46.86,1013.51,2019.06,3050.00,2906.72,3312.92,599.56,587.93,54.87,0000 0000 0000 0000 000000
2018-06-28 05:44:43,0.02,0.66,0.00,26.05,29.40,32.01,13.71,46.85,1013.51,2019.02,3049.96,2906.16,3312.43,600.12,588.19,54.92,0000 0000 0000 0000 000000
2018-06-28 05:49:45,0.01,0.66,0.00,26.06,29.42,32.03,13.70,46.97,1013.44,2019.00,3049.60,2906.03,3312.04,600.01,588.09,54.97,0000 0000 0000 0000 000000
2018-06-28 05:54:46,0.00,0.66,0.00,26.07,29.44,32.05,13.71,46.83,1013.41,2019.00,3049.06,2905.99,3312.00,599.78,587.84,55.02,0000 0000 0000 0000 000000
2018-06-28 05:59:47,0.00,0.66,0.00,26.07,29.46,32.08,13.77,46.97,1013.45,2019.00,3049.01,2905.97,3311.96,600.14,588.18,55.07,0000 0000 0000 0000 000000
2018-06-28 06:04:49,0.01,0.66,0.00,26.09,29.47,32.06,13.73,46.94,1013.28,2019.00,3048.99,2905.82,3311.61,599.90,587.95,55.12,0000 0000 0000 0000 000000
2018-06-28 06:09:50,0.02,0.66,0.00,26.12,29.49,32.10,13.69,46.85,1013.24,2018.99,3048.91,2905.47,3311.19,600.11,587.99,55.17,0000 0000 0000 0000 000000
2018-06-28 06:14:51,0.02,0.67,0.00,26.13,29.51,32.11,13.64,46.96,1013.24,2018.98,3048.30,2905.04,3311.01,599.41,587.37,55.22,0000 0000 0000 0000 000000
2018-06-28 06:19:53,-0.01,0.67,0.00,26.15,29.52,32.12,13.70,46.97,1013.47,2018.85,3048.02,2905.00,3310.97,599.82,587.65,55.27,0000 0000 0000 0000 000000
2018-06-28 06:24:54,-0.02,0.66,0.00,26.16,29.55,32.13,13.76,46.91,1013.65,2018.58,3047.99,2904.98,3310.54,600.17,588.26,55.32,0000 0000 0000 0000 000000
2018-06-28 06:29:55,-0.02,0.66,0.00,26.17,29.56,32.17,13.75,46.98,1013.66,2018.19,3047.96,2904.89,3310.03,600.32,588.11,55.37,0000 0000 0000 0000 000000
2018-06-28 06:34:56,0.01,0.66,0.00,26.19,29.57,32.20,13.76,46.92,1013.68,2018.10,3047.78,2904.54,3310.01,600.04,588.01,55.42,0000 0000 0000 0000 000000
2018-06-28 06:39:57,0.01,0.66,0.00,26.23,29.60,32.19,13.72,46.93,1013.68,2018.05,3047.17,2904.11,3310.00,599.96,587.93,55.47,0000 0000 0000 0000 000000
2018-06-28 06:44:59,0.00,0.66,0.00,26.25,29.61,32.20,13.68,46.82,1013.69,2018.01,3047.01,2904.01,3309.97,599.80,587.76,55.52,0000 0000 0000 0000 000000
2018-06-28 06:50:00,0.01,0.66,0.00,26.26,29.62,32.23,13.74,46.77,1013.69,2018.01,3046.99,2904.00,3309.57,600.06,587.82,55.57,0000 0000 0000 0000 000000
2018-06-28 06:55:01,0.00,0.66,0.00,26.28,29.65,32.23,13.76,47.05,1013.69,2018.00,3046.97,2904.00,3309.12,599.96,587.68,55.63,0000 0000 0000 0000 000000
2018-06-28 07:00:03,0.00,0.67,0.00,26.31,29.66,32.25,13.75,46.83,1013.70,2018.00,3046.81,2903.97,3309.00,600.25,587.98,55.68,0000 0000 0000 0000 000000
2018-06-28 07:05:04,0.02,0.67,0.00,26.34,29.68,32.27,13.70,46.77,1013.70,2018.00,3046.14,2903.61,3308.98,600.12,587.85,55.73,0000 0000 0000 0000 000000
2018-06-28 07:10:05,0.01,0.67,0.00,26.37,29.70,32.28,13.72,46.83,1013.70,2018.00,3046.00,2903.11,3308.70,600.40,588.02,55.78,0000 0000 0000 0000 000000
2018-06-28 07:15:06,0.01,0.67,0.00,26.40,29.72,32.32,13.75,46.80,1013.71,2017.99,3046.00,2903.02,3308.17,600.20,587.83,55.83,0000 0000 0000 0000 000000
2018-06-28 07:20:08,-0.01,0.67,0.00,26.44,29.74,32.31,13.70,46.71,1013.84,2017.93,3045.95,2903.00,3308.01,600.08,587.70,55.88,0000 0000 0000 0000 000000
2018-06-28 07:25:09,0.01,0.67,0.00,26.46,29.76,32.33,13.71,46.70,1013.90,2017.73,3045.24,2902.77,3307.87,599.66,587.32,55.93,0000 0000 0000 0000 000000
2018-06-28 07:30:10,-0.00,0.67,0.00,26.48,29.77,32.34,13.75,46.79,1013.76,2017.31,3044.81,2902.06,3307.09,600.13,587.62,55.98,0000 0000 0000 0000 000000
2018-06-28 07:35:11,-0.00,0.67,0.00,26.51,29.79,32.37,13.71,46.78,1013.77,2017.11,3044.05,2901.98,3306.95,599.94,587.32,56.03,0000 0000 0000 0000 000000
2018-06-28 07:40:13,0.02,0.67,0.00,26.55,29.81,32.39,13.68,46.64,1013.92,2017.02,3043.99,2901.55,3306.25,600.32,587.76,56.08,0000 0000 0000 0000 000000
2018-06-28 07:45:14,0.01,0.67,0.00,26.57,29.82,32.40,13.63,46.73,1014.05,2017.00,3043.89,2901.08,3306.01,599.76,587.21,56.13,0000 0000 0000 0000 000000
2018-06-28 07:50:15,0.01,0.67,0.00,26.59,29.85,32.43,13.71,46.75,1014.15,2017.00,3043.33,2901.01,3306.00,600.21,587.58,56.18,0000 0000 0000 0000 000000
2018-06-28 07:55:16,0.00,0.67,0.00,26.62,29.87,32.43,13.72,46.73,1014.17,2017.00,3043.02,2901.00,3305.87,600.21,587.62,56.23,0000 0000 0000 0000 000000
2018-06-28 08:00:17,0.00,0.67,0.00,26.65,29.89,32.46,13.76,46.71,1014.17,2017.00,3043.00,2900.99,3305.59,600.53,587.83,56.28,0000 0000 0000 0000 000000
2018-06-28 08:05:19,0.01,0.67,0.00,26.67,29.91,32.48,13.71,46.89,1014.17,2016.99,3042.96,2900.81,3305.06,600.16,587.43,56.33,0000 0000 0000 0000 000000
2018-06-28 08:10:20,0.02,0.67,0.00,26.70,29.93,32.50,13.75,46.84,1014.18,2016.98,3042.69,2900.28,3305.00,600.07,587.41,56.38,0000 0000 0000 0000 000000
2018-06-28 08:15:21,0.00,0.67,0.00,26.73,29.95,32.53,13.73,46.83,1014.19,2016.94,3042.08,2900.01,3304.92,600.07,587.29,56.43,0000 0000 0000 0000 000000
2018-06-28 08:20:22,0.00,0.67,0.00,26.75,29.97,32.54,13.64,46.77,1014.18,2016.87,3042.01,2900.00,3304.53,599.99,587.06,56.48,0000 0000 0000 0000 000000
2018-06-28 08:25:24,-0.04,0.67,0.00,26.77,30.00,32.56,13.74,46.85,1014.18,2016.50,3041.98,2899.99,3304.08,600.03,587.27,56.54,0000 0000 0000 0000 000000
2018-06-28 08:30:25,-0.01,0.67,0.00,26.80,30.01,32.59,13.64,46.80,1014.19,2016.13,3041.84,2899.88,3303.99,599.79,586.83,56.59,0000 0000 0000 0000 000000
2018-06-28 08:35:26,0.02,0.67,0.00,26.81,30.03,32.61,13.60,46.58,1014.41,2016.05,3041.32,2899.43,3303.99,600.01,587.19,56.64,0000 0000 0000 0000 000000
2018-06-28 08:40:28,0.01,0.67,0.00,26.84,30.06,32.62,13.69,46.69,1014.53,2016.01,3041.03,2899.06,3303.83,600.08,587.24,56.69,0000 0000 0000 0000 000000
2018-06-28 08:45:29,0.01,0.67,0.00,26.86,30.08,32.66,13.74,46.59,1014.63,2016.01,3041.00,2899.01,3303.27,600.03,587.20,56.74,0000 0000 0000 0000 000000
2018-06-28 08:50:30,0.00,0.67,0.00,26.88,30.10,32.69,13.71,46.60,1014.65,2016.00,3040.98,2898.99,3303.01,600.17,587.29,56.79,0000 0000 0000 0000 000000
2018-06-28 08:55:32,0.00,0.67,0.00,26.88,30.12,32.68,13.67,46.67,1014.66,2016.00,3040.82,2898.98,3303.00,599.83,586.96,56.84,0000 0000 0000 0000 000000
2018-06-28 09:00:33,0.03,0.67,0.00,26.91,30.15,32.71,13.63,46.75,1014.66,2016.00,3040.14,2898.62,3302.83,599.73,586.93,56.89,0000 0000 0000 0000 000000
2018-06-28 09:05:34,0.02,0.68,0.00,26.93,30.17,32.73,13.70,46.66,1014.66,2015.98,3040.00,2898.07,3302.12,600.01,587.10,56.94,0000 0000 0000 0000 000000
2018-06-28 09:10:35,-0.00,0.68,0.00,26.96,30.19,32.77,13.70,46.63,1014.66,2015.89,3040.00,2898.00,3302.01,600.02,587.12,56.99,0000 0000 0000 0000 000000
2018-06-28 09:15:37,-0.04,0.67,0.00,26.98,30.21,32.78,13.65,46.66,1014.69,2015.58,3039.98,2898.00,3301.99,599.88,586.82,57.04,0000 0000 0000 0000 000000
2018-06-28 09:20:38,-0.02,0.67,0.00,27.02,30.24,32.80,13.61,46.56,1014.75,2015.32,3039.88,2897.99,3301.97,600.10,586.98,57.09,0000 0000 0000 0000 000000
2018-06-28 09:25:39,0.01,0.67,0.00,27.03,30.26,32.82,13.64,46.49,1015.05,2015.16,3039.42,2897.92,3301.60,599.78,587.00,57.14,0000 0000 0000 0000 000000
2018-06-28 09:30:40,0.02,0.67,0.00,27.06,30.28,32.83,13.70,46.55,1015.15,2015.02,3039.01,2897.24,3301.03,599.88,587.14,57.19,0000 0000 0000 0000 000000
2018-06-28 09:35:41,0.00,0.67,0.00,27.10,30.31,32.88,13.72,46.61,1015.16,2015.00,3039.00,2897.04,3301.00,600.35,587.40,57.24,0000 0000 0000 0000 000000
2018-06-28 09:40:42,0.00,0.67,0.00,27.13,30.33,32.90,13.67,46.49,1015.16,2015.00,3038.75,2897.00,3300.95,600.09,587.05,57.29,0000 0000 0000 0000 000000
2018-06-28 09:45:43,0.01,0.68,0.00,27.16,30.36,32.92,13.66,46.58,1015.15,2014.99,3038.32,2897.00,3300.60,600.28,587.20,57.34,0000 0000 0000 0000 000000
2018-06-28 09:50:45,0.00,0.68,0.00,27.20,30.38,32.94,13.67,46.55,1015.15,2014.92,3038.01,2896.90,3300.04,599.97,586.82,57.39,0000 0000 0000 0000 000000
2018-06-28 09:55:46,-0.00,0.68,0.00,27.25,30.41,32.96,13.65,46.56,1015.16,2014.67,3038.00,2896.32,3300.00,599.96,586.72,57.44,0000 0000 0000 0000 000000
2018-06-28 10:00:47,-0.03,0.67,0.00,27.29,30.44,33.00,13.67,46.58,1015.18,2014.33,3037.98,2896.03,3299.97,599.93,586.56,57.49,0000 0000 0000 0000 000000
2018-06-28 10:05:48,0.00,0.67,0.00,27.34,30.47,33.01,13.57,46.40,1015.16,2014.07,3037.58,2896.00,3299.55,599.81,586.35,57.54,0000 0000 0000 0000 000000
2018-06-28 10:10:49,0.01,0.67,0.00,27.39,30.50,33.03,13.68,46.48,1015.18,2014.01,3037.08,2895.99,3299.04,599.80,586.36,57.60,0000 0000 0000 0000 000000
2018-06-28 10:15:51,0.01,0.67,0.00,27.42,30.53,33.06,13.63,46.59,1015.38,2014.00,3037.00,2895.68,3299.00,599.97,586.52,57.65,0000 0000 0000 0000 000000
2018-06-28 10:20:52,0.00,0.68,0.00,27.47,30.56,33.10,13.64,46.48,1015.50,2014.00,3036.98,2895.24,3298.92,599.98,586.52,57.70,0000 0000 0000 0000 000000
2018-06-28 10:25:53,0.02,0.68,0.00,27.51,30.60,33.15,13.68,46.42,1015.58,2013.98,3036.69,2895.01,3298.21,600.17,586.66,57.75,0000 0000 0000 0000 000000
2018-06-28 10:30:55,0.00,0.68,0.00,27.55,30.64,33.19,13.71,46.35,1015.64,2013.88,3036.10,2895.00,3298.00,600.16,586.66,57.80,0000 0000 0000 0000 000000
2018-06-28 10:35:56,-0.04,0.68,0.00,27.57,30.67,33.25,13.67,46.36,1015.64,2013.40,3036.00,2894.82,3297.92,600.21,586.60,57.85,0000 0000 0000 0000 000000
2018-06-28 10:40:57,0.01,0.68,0.00,27.57,30.71,33.29,13.62,46.43,1015.64,2013.06,3035.97,2894.17,3297.25,599.74,586.10,57.90,0000 0000 0000 0000 000000
2018-06-28 10:45:59,0.01,0.68,0.00,27.57,30.74,33.33,13.70,46.27,1015.65,2013.01,3035.67,2894.02,3297.03,600.27,586.71,57.95,0000 0000 0000 0000 000000
2018-06-28 10:51:00,0.01,0.68,0.00,27.59,30.77,33.35,13.65,46.42,1015.74,2013.00,3035.04,2894.00,3296.97,599.65,586.20,58.00,0000 0000 0000 0000 000000
2018-06-28 10:56:01,0.01,0.68,0.00,27.62,30.80,33.40,13.71,46.35,1015.96,2013.00,3034.99,2893.93,3296.67,600.16,586.65,58.05,0000 0000 0000 0000 000000
2018-06-28 11:01:03,0.01,0.68,0.00,27.65,30.83,33.42,13.65,46.24,1015.91,2012.99,3034.96,2893.54,3296.08,599.79,586.20,58.10,0000 0000 0000 0000 000000
2018-06-28 11:06:04,0.01,0.68,0.00,27.68,30.86,33.46,13.70,46.32,1015.80,2012.89,3034.40,2893.05,3296.00,600.01,586.29,58.15,0000 0000 0000 0000 000000
2018-06-28 11:11:05,-0.03,0.68,0.00,27.73,30.89,33.50,13.65,46.14,1015.95,2012.46,3034.04,2893.00,3295.97,599.73,586.02,58.20,0000 0000 0000 0000 000000
2018-06-28 11:16:06,-0.02,0.68,0.00,27.78,30.92,33.55,13.70,46.27,1016.10,2012.10,3034.00,2892.99,3295.60,600.19,586.55,58.25,0000 0000 0000 0000 000000
2018-06-28 11:21:07,0.02,0.68,0.00,27.83,30.95,33.56,13.69,46.03,1016.12,2012.01,3033.86,2892.64,3295.03,600.43,586.63,58.30,0000 0000 0000 0000 000000
2018-06-28 11:26:08,0.01,0.68,0.00,27.88,30.97,33.58,13.64,46.15,1016.13,2012.00,3033.54,2892.20,3294.99,600.19,586.29,58.35,0000 0000 0000 0000 000000
2018-06-28 11:31:10,0.01,0.68,0.00,27.91,31.00,33.62,13.69,46.23,1016.11,2012.00,3033.12,2892.03,3294.87,599.90,585.91,58.40,0000 0000 0000 0000 000000
2018-06-28 11:36:11,0.01,0.68,0.00,27.92,31.02,33.63,13.71,46.40,1016.13,2012.00,3033.00,2892.00,3294.33,600.28,586.28,58.45,0000 0000 0000 0000 000000
2018-06-28 11:41:13,0.00,0.68,0.00,27.95,31.04,33.65,13.63,46.07,1016.13,2011.97,3032.97,2891.97,3294.01,600.13,586.12,58.50,0000 0000 0000 0000 000000
2018-06-28 11:46:14,0.01,0.68,0.00,27.94,31.06,33.73,13.71,46.31,1016.13,2011.92,3032.67,2891.78,3293.99,600.29,586.26,58.55,0000 0000 0000 0000 000000
2018-06-28 11:51:15,0.01,0.68,0.00,27.93,31.07,33.76,13.67,46.22,1016.13,2011.74,3032.17,2891.23,3293.67,600.22,586.31,58.61,0000 0000 0000 0000 000000
2018-06-28 11:56:16,-0.01,0.68,0.00,27.89,31.10,33.82,13.66,46.06,1016.13,2011.47,3032.01,2891.01,3293.16,600.08,586.10,58.66,0000 0000 0000 0000 000000
2018-06-28 12:01:17,-0.03,0.68,0.00,27.85,31.10,33.82,13.69,46.23,1016.14,2011.27,3032.00,2891.00,3293.04,600.37,586.39,58.71,0000 0000 0000 0000 000000
2018-06-28 12:06:19,-0.01,0.68,0.00,27.78,31.11,33.84,13.64,46.16,1016.13,2011.09,3031.99,2891.00,3293.00,599.75,586.03,58.76,0000 0000 0000 0000 000000
2018-06-28 12:11:20,0.00,0.68,0.00,27.70,31.12,33.96,13.69,46.17,1016.13,2011.07,3031.93,2891.00,3293.00,600.01,586.43,58.81,0000 0000 0000 0000 000000
2018-06-28 12:16:21,0.00,0.68,0.00,27.64,31.12,34.06,13.67,46.31,1016.13,2011.04,3031.74,2890.98,3292.98,599.85,586.41,58.86,0000 0000 0000 0000 000000
2018-06-28 12:21:23,0.00,0.68,0.00,27.58,31.12,34.10,13.75,46.33,1016.13,2011.03,3031.55,2890.98,3292.98,600.44,587.04,58.91,0000 0000 0000 0000 000000
2018-06-28 12:26:24,0.00,0.68,0.00,27.53,31.12,34.12,13.69,46.13,1016.13,2011.01,3031.22,2890.94,3292.95,599.71,586.69,58.96,0000 0000 0000 0000 000000
2018-06-28 12:31:25,0.01,0.68,0.00,27.50,31.12,34.14,13.74,46.37,1016.14,2011.00,3031.04,2890.87,3292.79,599.83,586.62,59.01,0000 0000 0000 0000 000000
2018-06-28 12:36:26,0.01,0.68,0.00,27.45,31.12,34.14,13.66,46.11,1016.13,2011.00,3031.00,2890.71,3292.36,599.60,586.53,59.06,0000 0000 0000 0000 000000
2018-06-28 12:41:28,-0.01,0.68,0.00,27.41,31.12,34.13,13.73,46.26,1016.13,2011.00,3031.01,2890.65,3292.29,600.33,587.22,59.11,0000 0000 0000 0000 000000
2018-06-28 12:46:29,0.00,0.68,0.00,27.38,31.12,34.11,13.67,46.20,1016.14,2011.00,3031.00,2890.65,3292.20,599.50,586.57,59.16,0000 0000 0000 0000 000000
2018-06-28 12:51:30,0.01,0.68,0.00,27.36,31.10,34.10,13.77,46.42,1016.14,2011.00,3031.00,2890.29,3292.05,600.32,587.41,59.21,0000 0000 0000 0000 000000
2018-06-28 12:56:32,-0.00,0.68,0.00,27.34,31.10,34.10,13.64,46.42,1016.14,2011.01,3031.00,2890.43,3292.05,599.56,586.72,59.26,0000 0000 0000 0000 000000